Tiempo cada hora Caxambu

Hoy, 26 Enero, Martes

Tiempo Temperatura Precipitaciones Viento Presión Humedad
00:00 +20°C° 1.3 mm 1 mps 683 mmHg 93%
01:00 +20°C° 0.2 mm 1 mps 683 mmHg 93%
02:00 +20°C° 0.2 mm 1 mps 683 mmHg 93%
03:00 +20°C° 0.2 mm 1 mps 683 mmHg 94%
04:00 +19°C° 0 mm 1 mps 683 mmHg 94%
05:00 +19°C° 0 mm 1 mps 683 mmHg 95%
06:00 +17°C° 0 mm 0 mps 684 mmHg 95%
07:00 +21°C° 0 mm 1 mps 684 mmHg 90%
08:00 +23°C° 0 mm 1 mps 685 mmHg 85%
09:00 +25°C° 0 mm 1 mps 686 mmHg 80%
10:00 +26°C° 0 mm 1 mps 686 mmHg 76%
11:00 +27°C° 0 mm 2 mps 685 mmHg 72%
12:00 +28°C° 0 mm 2 mps 685 mmHg 68%
13:00 +28°C° 0.1 mm 2 mps 685 mmHg 67%
14:00 +28°C° 0.1 mm 2 mps 685 mmHg 66%
15:00 +29°C° 0.1 mm 2 mps 684 mmHg 65%
16:00 +28°C° 0.1 mm 1 mps 684 mmHg 70%
17:00 +27°C° 0.1 mm 1 mps 684 mmHg 75%
18:00 +24°C° 0.1 mm 0 mps 684 mmHg 80%
19:00 +23°C° 0.1 mm 0 mps 684 mmHg 83%
20:00 +23°C° 0.1 mm 1 mps 684 mmHg 87%
21:00 +22°C° 0.1 mm 1 mps 684 mmHg 91%
22:00 +22°C° 0.1 mm 1 mps 684 mmHg 92%
23:00 +21°C° 0.1 mm 1 mps 684 mmHg 93%

Mañana, 27 Enero, Miércoles

Tiempo Temperatura Precipitaciones Viento Presión Humedad
00:00 +21°C° 0.1 mm 1 mps 684 mmHg 94%
01:00 +21°C° 0 mm 1 mps 684 mmHg 94%
02:00 +21°C° 0 mm 1 mps 684 mmHg 94%
03:00 +21°C° 0 mm 1 mps 683 mmHg 94%
04:00 +21°C° 0 mm 1 mps 683 mmHg 94%
05:00 +18°C° 0 mm 0 mps 684 mmHg 95%
06:00 +18°C° 0 mm 0 mps 684 mmHg 95%
07:00 +22°C° 0 mm 1 mps 684 mmHg 90%
08:00 +23°C° 0 mm 1 mps 685 mmHg 85%
09:00 +25°C° 0 mm 1 mps 685 mmHg 79%
10:00 +25°C° 0 mm 1 mps 685 mmHg 76%
11:00 +26°C° 0 mm 2 mps 685 mmHg 73%
12:00 +27°C° 0 mm 2 mps 685 mmHg 69%
13:00 +27°C° 0 mm 2 mps 684 mmHg 68%
14:00 +28°C° 0 mm 2 mps 684 mmHg 66%
15:00 +28°C° 0 mm 2 mps 683 mmHg 64%
16:00 +27°C° 0 mm 2 mps 683 mmHg 69%
17:00 +27°C° 0 mm 1 mps 683 mmHg 74%
18:00 +26°C° 0 mm 1 mps 683 mmHg 79%
19:00 +24°C° 0 mm 1 mps 683 mmHg 83%
20:00 +23°C° 0 mm 1 mps 683 mmHg 86%
21:00 +19°C° 0 mm 0 mps 683 mmHg 90%
22:00 +21°C° 0 mm 1 mps 683 mmHg 91%
23:00 +20°C° 0 mm 1 mps 683 mmHg 92%

Pasado mañana, 28 Enero, Jueves

Tiempo Temperatura Precipitaciones Viento Presión Humedad
00:00 +20°C° 0 mm 1 mps 683 mmHg 93%
01:00 +19°C° 0 mm 1 mps 683 mmHg 94%
02:00 +19°C° 0 mm 1 mps 683 mmHg 94%
03:00 +17°C° 0 mm 0 mps 682 mmHg 94%
04:00 +16°C° 0 mm 0 mps 682 mmHg 94%
05:00 +16°C° 0 mm 0 mps 683 mmHg 94%
06:00 +16°C° 0 mm 0 mps 683 mmHg 93%
07:00 +18°C° 0 mm 0 mps 683 mmHg 85%
08:00 +22°C° 0 mm 1 mps 684 mmHg 77%
09:00 +24°C° 0 mm 1 mps 685 mmHg 69%
10:00 +25°C° 0 mm 1 mps 685 mmHg 66%
11:00 +26°C° 0 mm 2 mps 684 mmHg 63%
12:00 +27°C° 0 mm 2 mps 684 mmHg 59%
13:00 +28°C° 0 mm 2 mps 684 mmHg 58%
14:00 +28°C° 0 mm 2 mps 683 mmHg 56%
15:00 +29°C° 0 mm 2 mps 683 mmHg 54%
16:00 +28°C° 0 mm 1 mps 682 mmHg 60%
17:00 +27°C° 0 mm 1 mps 682 mmHg 65%
18:00 +24°C° 0 mm 0 mps 682 mmHg 71%
19:00 +22°C° 0 mm 0 mps 682 mmHg 74%
20:00 +20°C° 0 mm 0 mps 682 mmHg 76%
21:00 +19°C° 0 mm 0 mps 682 mmHg 79%
22:00 +18°C° 0 mm 0 mps 682 mmHg 80%
23:00 +20°C° 0 mm 1 mps 683 mmHg 82%

29 Enero, Viernes

Tiempo Temperatura Precipitaciones Viento Presión Humedad
00:00 +19°C° 0 mm 1 mps 683 mmHg 83%
01:00 +19°C° 0 mm 1 mps 683 mmHg 86%
02:00 +19°C° 0 mm 1 mps 682 mmHg 88%
03:00 +19°C° 0 mm 1 mps 682 mmHg 90%
04:00 +17°C° 0 mm 0 mps 682 mmHg 90%
05:00 +16°C° 0 mm 0 mps 683 mmHg 90%
06:00 +16°C° 0 mm 0 mps 683 mmHg 90%
07:00 +19°C° 0 mm 0 mps 684 mmHg 84%
08:00 +23°C° 0 mm 1 mps 685 mmHg 78%
09:00 +26°C° 0 mm 1 mps 685 mmHg 72%
10:00 +27°C° 0 mm 1 mps 685 mmHg 68%
11:00 +27°C° 0 mm 2 mps 685 mmHg 65%
12:00 +28°C° 0 mm 2 mps 685 mmHg 61%
13:00 +29°C° 0 mm 2 mps 685 mmHg 61%
14:00 +29°C° 0 mm 2 mps 684 mmHg 61%
15:00 +29°C° 0 mm 2 mps 683 mmHg 61%
16:00 +28°C° 0.1 mm 1 mps 683 mmHg 66%
17:00 +27°C° 0.1 mm 1 mps 683 mmHg 72%
18:00 +26°C° 0.1 mm 1 mps 683 mmHg 77%
19:00 +25°C° 0.1 mm 1 mps 683 mmHg 81%
20:00 +21°C° 0.1 mm 0 mps 683 mmHg 84%
21:00 +20°C° 0.1 mm 0 mps 683 mmHg 88%
22:00 +20°C° 0.1 mm 0 mps 684 mmHg 89%
23:00 +19°C° 0.1 mm 0 mps 684 mmHg 89%

30 Enero, Sábado

Tiempo Temperatura Precipitaciones Viento Presión Humedad
00:00 +19°C° 0.1 mm 0 mps 684 mmHg 90%
01:00 +20°C° 0 mm 1 mps 683 mmHg 91%
02:00 +20°C° 0 mm 1 mps 683 mmHg 92%
03:00 +20°C° 0 mm 1 mps 683 mmHg 94%
04:00 +20°C° 0 mm 1 mps 683 mmHg 94%
05:00 +20°C° 0 mm 1 mps 684 mmHg 94%
06:00 +20°C° 0 mm 1 mps 684 mmHg 94%
07:00 +22°C° 0 mm 1 mps 685 mmHg 88%
08:00 +24°C° 0 mm 1 mps 685 mmHg 81%
09:00 +26°C° 0 mm 1 mps 686 mmHg 75%
10:00 +27°C° 0.1 mm 1 mps 686 mmHg 70%
11:00 +28°C° 0.1 mm 1 mps 686 mmHg 66%
12:00 +29°C° 0.1 mm 2 mps 686 mmHg 62%
13:00 +30°C° 0.1 mm 1 mps 686 mmHg 60%
14:00 +30°C° 0.1 mm 1 mps 685 mmHg 59%
15:00 +30°C° 0.1 mm 1 mps 684 mmHg 57%
16:00 +29°C° 0 mm 1 mps 684 mmHg 62%
17:00 +28°C° 0 mm 1 mps 684 mmHg 68%
18:00 +27°C° 0 mm 1 mps 684 mmHg 73%
19:00 +26°C° 0 mm 1 mps 684 mmHg 76%
20:00 +24°C° 0 mm 1 mps 684 mmHg 78%
21:00 +22°C° 0 mm 1 mps 684 mmHg 81%
22:00 +22°C° 0 mm 1 mps 684 mmHg 84%
23:00 +22°C° 0 mm 1 mps 684 mmHg 88%

31 Enero, Domingo

Tiempo Temperatura Precipitaciones Viento Presión Humedad
00:00 +21°C° 0 mm 1 mps 684 mmHg 91%
01:00 +21°C° 0 mm 1 mps 684 mmHg 92%
02:00 +21°C° 0 mm 1 mps 684 mmHg 93%
03:00 +20°C° 0 mm 1 mps 683 mmHg 94%
04:00 +20°C° 0 mm 1 mps 684 mmHg 93%
05:00 +20°C° 0 mm 1 mps 684 mmHg 93%
06:00 +18°C° 0 mm 0 mps 684 mmHg 93%
07:00 +22°C° 0 mm 1 mps 685 mmHg 86%
08:00 +24°C° 0 mm 1 mps 685 mmHg 79%
09:00 +26°C° 0 mm 1 mps 686 mmHg 72%
10:00 +27°C° 0 mm 1 mps 686 mmHg 70%
11:00 +28°C° 0 mm 1 mps 686 mmHg 67%
12:00 +29°C° 0 mm 2 mps 685 mmHg 64%
13:00 +29°C° 0.5 mm 2 mps 685 mmHg 66%
14:00 +29°C° 0.5 mm 2 mps 684 mmHg 67%
15:00 +29°C° 0.5 mm 2 mps 684 mmHg 69%
16:00 +28°C° 1.5 mm 1 mps 684 mmHg 74%
17:00 +27°C° 1.5 mm 1 mps 683 mmHg 79%
18:00 +24°C° 1.5 mm 0 mps 683 mmHg 84%
19:00 +23°C° 0.2 mm 0 mps 683 mmHg 85%
20:00 +23°C° 0.2 mm 1 mps 683 mmHg 86%
21:00 +22°C° 0.2 mm 1 mps 683 mmHg 87%
22:00 +21°C° 0 mm 1 mps 683 mmHg 89%
23:00 +21°C° 0 mm 1 mps 683 mmHg 90%
Mostrar más